Voltar ao catálogo

SAR LUPE 2

AtivoMilitarPO
NORAD 31797·PAYLOAD·🇩🇪 Germany

Lançado Jul 2, 2007 de Plesetsk Cosmodrome

Loading…

Próximas Passagens (próximas 24 horas)

TLE

AtualizadoSource: Space-Track

Época: Sep 14, 2026, 14:19 UTC

1 31797U 07030A   26257.59697986  .00044081  00000-0  50077-3 0  9997
2 31797  98.1101  14.0489 0004268 166.7720 193.3649 15.62209329 70847

Acompanhe SAR LUPE 2 em tempo real com AllMySat

Download on the App Store